LUCKY-7

Last updated on Thu Nov 21 2024 00:03:40 GMT+0000 (Coordinated Universal Time)

1 44406U 19038W 24325.47646074 .00295103 00000+0 13660-2 0 9990 2 44406 97.6888 336.0545 0004807 193.3722 166.7419 15.82691268298683
UTC large
Height (km)
Speed (km/s)
/
Latitude / Longitude
Inclination (degrees)
Orbital Period (minutes)
Azimuth
Elevation
Range (km)
Doppler Factor

Next 0 passes for location: London (51.5072 / 0.1276)

Sorry there are no passes over London.